Location: A O Calhoun Middle School
(33.2198°N, 97.1397°W)
Time: 21:09:04
(UTC+00:00)

Cosmos 1602 - Visible Passes

Search period start: 26 June 2022 00:00
Search period end: 06 July 2022 00:00
Orbit: 507 x 528 km, 82.5° (Epoch: 26 June)

Date Brightness Start Highest point End Pass type
(mag) Time Alt. Az. Time Alt. Az. Time Alt. Az.
26 Jun 3.7 10:15:22 14° SSW 10:18:32 63° W 10:22:17 10° N visible
27 Jun 3.6 10:01:38 20° S 10:04:13 80° W 10:08:00 10° N visible
28 Jun 3.6 09:47:52 26° S 09:49:54 82° E 09:53:41 10° N visible
29 Jun 3.9 09:34:02 33° SSE 09:35:35 65° E 09:39:20 10° NNE visible
30 Jun 4.3 09:20:11 37° SE 09:21:16 52° E 09:24:57 10° NNE visible
01 Jul 4.6 09:06:18 37° ESE 09:06:57 41° E 09:10:32 10° NNE visible
02 Jul 5.0 08:52:23 33° E 08:52:38 33° E 08:56:04 10° NNE visible
02 Jul 5.9 10:27:27 10° W 10:28:29 11° WNW 10:29:33 10° WNW visible
03 Jul 5.4 08:38:26 27° E 08:38:26 27° E 08:41:34 10° NNE visible
03 Jul 5.7 10:13:31 13° W 10:14:05 13° WNW 10:15:59 10° NW visible
04 Jul 5.8 08:24:28 22° ENE 08:24:28 22° ENE 08:27:00 10° NE visible
04 Jul 5.5 09:59:32 16° W 09:59:41 16° WNW 10:02:06 10° NW visible
05 Jul 6.2 08:10:28 17° ENE 08:10:28 17° ENE 08:12:22 10° NE visible
05 Jul 5.4 09:45:32 19° WNW 09:45:32 19° WNW 09:48:04 10° NNW visible
